EHI
0 0 0 0 0 0 0 0 0 0 0 0 0 0 0 0 0 0 0 0 0 0 0 0 0 0 0 0 0 0 0 0 0 0 0 0 0 0
0 0 0 0 0 0 0 0 0 0 0 0 0 0 0 0 0 0 0 0 0 0 0 0 0 0 0 0 0 0 0 0 0 0 0 0 0 0
0 0 0 0 0 0 0 0 0 0 0 0 0 0 0 0 0 0 0 0 0 0 0 0 0 0 0 0 0 0 0 0 0 0 0 0 0 0
0 0 0 0 0 0 0 0 0 0 0 0 0 0 0 0 0 0 0 0 0 0 0 0 0 0 0 0 0 0 0 0 0 0 0 0 0 0
0 0 0 0 0 0 0 0 0 0 0 0 0 0 0 0 0 0 0 0 0 0 0 0 0 0 0 0 0 0 0 0 0 0 0 0 0 0
0 0 0 0 0 0 0 0 0 0 0 0 0 0 0 0 0 0 0 0 0 0 0 0 0 0 0 0 0 0 0 0 0 0 0 0 0 0
0 0 0 0 0 0 0 0 0 0 0 0 0 0 0 0 0 0 0 0 0 0 0 0 0 0 0 0 0 0 0 0 0 0 0 0 0 0
0 0 0 0 0 0 0 0 0 0 0 0 0 0 0 0 0 0 0 0 0 0 0 0 0 0 0 0 0 0 0 0 0 0 0 0 0 0
0 0 0 0 0 0 0 0 0 0 0 0 0 0 0 0 0 0 0 0 0 0 0 0 0 0 0 0 0 0 0 0 0 0 0 0 0 0
0 0 0 0 0 0 0 0 0 0 0 0 0 0 0 0 0 0 0 0 0 0 0 0 0 0 0 0 0 0 0 0 0 0 0 0 0 0
0 0 0 0 0 0 0 0 0 0 0 0 0 0 0 0 0 0 0 0 0 0 0 0 0 0 0 0 0 0 0 0 0 0 0 0 0 0
0 0 0 0 0 0 0 0 0 0 0 0 0 0 0 0 0 0 0 0 0 0 0 0 0 0 0 0 0 0 0 0 0 0 0 0 0 0
0 0 0 0 0 0 0 0 0 0 0 0 0 0 0 0 0 0 0 0 0 0 0 0 0 0 0 0 0 0 0 0 0 0 0 0 0 0
0 0 0 0 0 0 0 0 0 0 0 0 0 0 0 0 0 0 0 0 0 0 0 0 0 0 0 0 0 0 0 0 0 0 0 0 0 0
0 0 0 0 0 0 0 0 0 0 0 0 0 0 0 0 0 0 0 0 0 0 0 0 0 0 0 0 0 0 0 0 0 0 0 0 0 0
0 0 0 0 0 0 0 0 0 0 0 0 0 0 0 0 0 0 0 0 0 0 0 0 0 0 0 0 0 0 0 0 0 0 0 0 0 0
0 0 0 0 0 0 0 0 0 0 0 0 0 0 0 0 0 0 0 0 0 0 0 0 0 0 0 0 0 0 0 0 0 0 0 0 0 0
0 0 0 0 0 0 0 0 0 0 0 0 0 0 0 0 0 0 0 0 0 0 0 0 0 0 0 0 0 0 0 0 0 0 0 0 0 0
0 0 0 0 0 0 0 0 0 0 0 0 0 0 0 0 0 0 0 0 0 0 0 0 0 0 0 0 0 0 0 0 0 0 0 0 0 0
0 0 0 0 0 0 0 0 0 0 0 0 0 0 0 0 0 0 0 0 0 0 0 0 0 0 0 0 0 0 0 0 0 0 0 0 0 0
0 0 0 0 0 0 0 0 0 0 0 0 0 0 0 0 0 0 0 0 0 0 0 0 0 0 0 0 0 0 0 0 0 0 0 0 0 0
0 0 0 0 0 0 0 0 0 0 0 0 0 0 0 0 0 0 0 0 0 0 0 0 0 0 0 0 0 0 0 0 0 0 0 0 0 0
0 0 0 0 0 0 0 0 0 0 0 0 0 0 0 0 0 0 0 0 0 0 0 0 0 0 0 0 0 0 0 0 0 0 0 0 0 0
Wind_Speed
7 7 5 4 4 3 3 2 2 3 3 2 2 3 1 2 2 1 4 7 6 4 2 1 2 4 5 5 6 7 7 8 8 9 9 10 10 11
6 7 6 5 4 4 3 3 3 3 4 3 3 3 2 1 2 1 2 7 8 7 5 3 1 1 3 4 5 6 7 7 8 9 10 10 11 11
7 7 6 6 4 4 4 5 5 4 4 3 3 3 2 1 0 2 2 3 5 9 8 6 4 2 0 2 3 4 6 7 8 9 10 10 11 11
6 6 6 5 6 5 4 4 4 3 3 3 2 2 1 2 1 3 2 1 3 10 10 8 6 4 2 1 2 3 4 6 7 8 9 10 11 11
6 6 6 6 6 5 5 4 3 3 2 2 1 1 1 0 1 2 1 1 1 7 10 8 8 6 4 2 1 1 3 4 6 7 9 10 10 11
5 6 6 6 6 5 5 5 4 3 3 2 1 1 1 1 1 2 2 2 2 1 2 4 7 8 7 5 3 1 2 3 4 6 7 8 9 10
5 6 6 7 7 5 5 4 5 4 3 2 2 3 3 3 3 2 2 2 2 2 1 0 2 3 4 6 5 3 2 3 4 5 7 7 8 9
4 4 5 4 4 3 3 3 3 4 4 3 3 3 3 3 3 3 2 2 2 2 2 1 1 2 3 3 6 6 4 3 4 5 6 7 8 9
3 3 4 6 5 4 2 1 1 2 1 1 3 3 3 3 4 4 3 3 3 3 1 2 1 1 2 4 9 8 6 5 5 6 7 8 9 9
5 5 6 6 7 7 4 3 2 1 1 2 1 2 2 2 3 3 4 4 3 2 1 1 1 1 1 3 9 9 8 7 7 7 8 9 10 11
6 7 6 6 8 9 5 4 4 3 2 2 3 4 5 5 3 3 4 3 2 1 2 1 2 2 1 2 5 10 9 9 9 8 8 8 10 10
5 6 9 7 7 8 5 4 4 4 5 5 4 5 5 5 6 4 3 2 2 2 2 2 2 2 2 1 1 3 5 8 10 10 9 8 7 5
3 4 4 4 5 6 5 3 3 5 6 5 3 1 1 1 2 3 3 1 1 2 2 2 2 3 2 2 2 2 2 2 3 4 7 8 6 3
3 3 2 2 4 5 4 5 8 7 4 3 2 2 2 2 1 2 1 2 3 4 3 1 1 2 2 3 3 2 1 1 1 2 2 4 6 6
3 2 1 3 4 4 4 7 7 4 3 3 3 2 2 1 2 2 2 2 4 3 2 3 2 2 2 2 3 2 1 1 0 1 1 1 2 2
2 3 5 6 6 5 4 4 2 1 2 2 3 2 2 2 2 1 2 2 2 3 3 3 3 2 2 3 2 2 1 1 1 1 1 2 2 2
5 3 2 2 1 0 0 1 1 1 2 2 2 3 2 2 2 2 2 2 2 2 3 2 2 1 2 2 2 2 2 2 2 2 2 2 1 2
5 3 2 2 2 2 2 2 2 3 3 3 3 3 3 3 3 3 2 2 2 3 3 3 2 2 2 1 1 2 2 2 2 3 2 2 2 2
3 2 2 2 2 2 2 2 2 2 2 3 3 3 3 3 3 3 3 3 3 3 3 2 2 2 3 3 3 4 2 2 2 3 2 2 2 2
1 1 2 2 2 2 2 2 2 2 2 3 3 3 3 3 3 3 3 3 3 4 3 2 1 1 2 3 3 3 7 4 2 2 3 3 1 2
2 2 2 2 2 2 2 2 2 2 2 2 2 3 3 3 3 4 4 5 4 3 3 3 2 4 4 3 3 2 3 8 6 3 2 3 2 1
3 3 2 2 2 2 2 2 2 2 2 2 3 3 3 3 4 5 4 4 3 3 4 3 3 3 2 2 3 2 2 3 6 8 8 6 3 2
2 2 2 1 2 2 3 4 4 3 3 4 4 4 4 4 4 4 4 4 4 4 4 4 4 4 3 2 3 2 3 3 2 2 5 11 15 14
Wind_Direction
58 52 49 42 36 40 50 70 102 129 123 137 122 104 85 108 167 197 159 178 169 158 151 78 20 11 7 4 1 357 353 350 346 343 339 334 331 329
61 54 47 37 32 30 32 33 38 82 104 106 95 100 83 103 173 276 219 183 183 179 188 192 206 342 359 360 1 359 356 354 349 344 338 334 331 328
64 62 56 44 36 37 35 41 41 52 85 87 100 130 138 113 151 279 241 184 171 185 192 196 197 196 337 352 358 4 3 356 351 346 342 340 336 332
68 65 59 54 45 42 41 50 51 49 73 83 107 131 150 159 213 270 279 106 172 185 193 199 198 200 202 266 356 10 3 356 353 349 345 341 338 335
68 65 60 53 46 39 41 40 36 48 56 77 85 90 95 52 312 305 334 298 273 169 191 204 206 204 200 213 246 350 353 350 349 345 342 340 338 336
73 67 60 54 41 28 45 36 31 21 30 42 50 55 49 357 11 348 359 342 333 90 183 190 196 200 200 204 212 248 325 336 335 334 336 337 337 335
82 81 77 76 64 46 50 32 25 19 21 24 40 40 28 12 9 346 7 339 346 23 353 205 166 185 192 200 203 216 253 300 320 326 330 332 331 329
89 98 111 99 90 85 68 47 33 35 25 14 35 34 24 18 358 351 7 354 337 335 341 311 168 175 177 174 184 200 223 257 294 312 320 321 322 322
73 68 75 75 50 32 17 303 269 239 252 14 17 6 19 20 1 348 348 328 293 284 310 298 278 190 175 161 180 200 217 238 266 290 304 311 316 317
66 64 68 61 35 10 350 12 44 75 194 212 350 345 12 6 343 317 303 304 295 294 323 305 313 296 176 164 198 209 222 236 253 274 292 305 315 315
72 58 63 66 33 13 3 21 34 23 4 309 285 283 286 281 283 319 327 347 344 338 357 341 322 309 245 200 208 215 228 236 246 259 276 295 313 319
91 85 66 55 35 20 8 17 20 358 341 320 288 269 257 252 233 229 281 329 338 337 353 357 345 343 330 279 237 202 228 238 241 253 262 276 304 321
89 91 74 42 25 8 354 1 353 319 304 296 287 261 246 247 194 219 236 280 335 321 322 4 342 336 324 305 292 249 215 217 219 242 245 250 265 288
51 71 86 14 345 333 330 328 327 321 302 318 359 25 27 18 326 286 270 268 241 238 252 253 269 290 305 312 304 295 281 247 215 221 220 220 241 244
27 10 306 287 305 291 277 298 312 318 341 357 2 356 343 316 297 302 299 291 289 275 244 217 231 271 289 288 294 304 303 300 316 281 244 222 220 211
332 287 258 265 271 281 282 270 264 311 347 335 337 332 326 328 328 332 323 310 308 304 281 249 239 248 271 294 299 310 319 310 314 301 279 259 220 172
334 299 259 244 231 220 347 336 331 20 7 347 342 339 339 338 331 327 317 318 329 323 317 299 268 250 261 272 317 327 331 323 302 297 300 287 228 174
333 317 6 23 23 28 13 4 25 35 7 342 339 347 344 334 332 332 336 344 331 319 310 303 321 329 319 343 286 300 322 322 312 302 294 296 270 198
303 317 47 33 23 19 14 11 18 25 346 330 342 346 340 336 338 335 337 344 331 319 308 311 352 359 342 331 280 242 257 290 304 313 307 294 273 211
261 35 48 32 27 17 10 8 4 358 357 344 342 344 342 333 331 329 325 335 322 309 312 325 358 339 294 284 279 258 219 236 272 293 300 297 310 93
45 47 40 24 19 9 1 1 352 344 358 332 333 341 334 324 326 327 323 326 314 307 324 315 284 274 257 266 277 266 229 221 228 229 270 297 297 256
34 28 28 15 8 356 356 4 0 356 356 344 356 350 335 328 328 322 318 319 318 325 325 309 300 295 282 294 302 295 281 260 235 238 246 237 236 254
48 6 332 16 31 10 19 7 358 1 17 10 358 343 332 324 314 313 319 324 329 335 334 327 325 316 313 313 309 308 318 309 271 234 249 237 236 247